Date String (YYYY-MM-DD hh:mm:ss) UTC,Instrument flags,absolute air pressure of the measurement (hPa),sample flow rate (lpm),inlet stack bypass flow (lpm),air temperature of the measurement (°C),ambient temperature measured by the external sensor (°C),aerosol sample conditioner tube jacket temperature (°C),OPC LED temperature (°C),internal box temperature (°C),relative humidity of the measurement (%),span deviation,mass concentration of particles derived from Lorenz-Mie calculation of OPC scattering (μg/m³),mass concentration of particles derived from Lorenz-Mie calculation of OPC scattering (μg/m³),mass concentration of particles derived from Lorenz-Mie calculation of OPC scattering (μg/m³)
DateTimeUTC,F1_M11,P_M11,Q1_M11,Q2_M11,T1_M11,T2_M11,T3_M11,T4_M11,T5_M11,U1_M11,ZSPAN_M11,X0_M11,X2_M11,X1_M11
2024-01-21 01:00:00,SystemResetWarning,0824.1,5.01,000.00,020.2,019.6,000.0,028.6,021.6,15.0,0001.2,0025.77,0017.56,0016.55
2024-01-21 01:01:00,SystemResetWarning,0824.2,5.00,000.00,020.2,019.6,000.0,028.6,021.6,15.0,0001.6,0025.65,0017.62,0016.60
2024-01-21 01:02:00,SystemResetWarning,0824.1,5.00,000.00,020.2,019.6,000.0,028.6,021.6,15.0,0001.5,0025.75,0017.65,0016.62
2024-01-21 01:03:00,SystemResetWarning,0824.1,5.00,000.00,020.2,019.6,000.0,028.6,021.6,15.0,0001.4,0025.97,0017.67,0016.62
2024-01-21 01:04:00,SystemResetWarning,0824.1,5.00,000.00,020.2,019.6,000.0,028.6,021.6,15.0,0001.2,0025.81,0017.66,0016.63
2024-01-21 01:05:00,SystemResetWarning,0824.1,4.99,000.00,020.2,019.6,000.0,028.6,021.6,15.0,0001.5,0025.83,0017.70,0016.66
2024-01-21 01:06:00,SystemResetWarning,0824.2,5.00,000.00,020.3,019.6,000.0,028.6,021.5,15.0,0001.8,0026.03,0017.74,0016.70
2024-01-21 01:07:00,SystemResetWarning,0824.3,5.00,000.00,020.2,019.6,000.0,028.6,021.5,15.0,0001.7,0024.95,0017.76,0016.71
2024-01-21 01:08:00,SystemResetWarning,0824.3,5.00,000.00,020.2,019.6,000.0,028.6,021.6,15.0,0001.9,0024.69,0017.84,0016.76
2024-01-21 01:09:00,SystemResetWarning,0824.3,5.00,000.00,020.2,019.6,000.0,028.6,021.6,15.0,0001.9,0024.82,0017.93,0016.81
2024-01-21 01:10:00,SystemResetWarning,0824.3,5.00,000.00,020.2,019.6,000.0,028.6,021.6,15.0,0002.0,0025.23,0018.05,0016.87
2024-01-21 01:11:00,SystemResetWarning,0824.3,5.00,000.00,020.3,019.6,000.0,028.6,021.6,15.0,0002.0,0025.29,0018.14,0016.94
2024-01-21 01:12:00,SystemResetWarning,0824.3,5.01,000.00,020.3,019.6,000.0,028.6,021.6,15.1,0001.7,0025.16,0018.20,0016.97
2024-01-21 01:13:00,SystemResetWarning,0824.3,5.00,000.00,020.3,019.6,000.0,028.6,021.6,15.1,0001.7,0025.63,0018.27,0017.02
2024-01-21 01:14:00,SystemResetWarning,0824.3,5.00,000.00,020.3,019.6,000.0,028.6,021.6,15.1,0001.9,0025.91,0018.36,0017.10
2024-01-21 01:15:00,SystemResetWarning,0824.3,5.00,000.00,020.3,019.6,000.0,028.6,021.6,15.1,0001.9,0026.31,0018.48,0017.19
2024-01-21 01:16:00,SystemResetWarning,0824.3,4.99,000.00,020.3,019.6,000.0,028.6,021.6,15.1,0001.9,0026.41,0018.53,0017.24
2024-01-21 01:17:00,SystemResetWarning,0824.3,4.99,000.00,020.3,019.6,000.0,028.6,021.6,15.0,0001.7,0026.55,0018.60,0017.28
2024-01-21 01:18:00,SystemResetWarning,0824.1,4.99,000.00,020.3,019.6,000.0,028.6,021.6,15.0,0002.0,0027.17,0018.69,0017.35
2024-01-21 01:19:00,SystemResetWarning,0824.2,5.00,000.00,020.3,019.6,000.0,028.6,021.6,15.0,0002.0,0027.72,0018.81,0017.42
2024-01-21 01:20:00,SystemResetWarning,0824.2,4.99,000.00,020.3,019.6,000.0,028.6,021.6,15.0,0002.0,0028.40,0018.82,0017.47
2024-01-21 01:21:00,SystemResetWarning,0824.2,5.00,000.00,020.3,019.6,000.0,028.6,021.6,15.0,0001.8,0028.04,0018.82,0017.51
2024-01-21 01:22:00,SystemResetWarning,0824.1,5.00,000.00,020.3,019.6,000.0,028.6,021.6,14.9,0002.1,0028.27,0018.87,0017.56
2024-01-21 01:23:00,SystemResetWarning,0824.0,5.00,000.00,020.3,019.6,000.0,028.6,021.6,14.9,0002.3,0028.55,0018.87,0017.59
2024-01-21 01:24:00,SystemResetWarning,0824.0,5.00,000.00,020.3,019.6,000.0,028.6,021.6,14.9,0002.4,0028.72,0018.94,0017.67
2024-01-21 01:25:00,SystemResetWarning,0824.0,5.00,000.00,020.3,019.6,000.0,028.6,021.6,14.9,0002.7,0028.70,0018.97,0017.73
2024-01-21 01:26:00,SystemResetWarning,0824.1,5.00,000.00,020.3,019.6,000.0,028.6,021.6,14.9,0002.8,0029.18,0019.04,0017.77
2024-01-21 01:27:00,SystemResetWarning,0824.0,5.00,000.00,020.3,019.6,000.0,028.7,021.6,14.9,0002.9,0029.68,0019.03,0017.80
2024-01-21 01:28:00,SystemResetWarning,0824.0,5.00,000.00,020.3,019.6,000.0,028.7,021.6,14.9,0002.8,0030.09,0019.03,0017.83
2024-01-21 01:29:00,SystemResetWarning,0824.0,5.00,000.00,020.3,019.7,000.0,028.7,021.6,14.9,0002.5,0029.91,0019.03,0017.85
2024-01-21 01:30:00,SystemResetWarning,0824.0,5.00,000.00,020.3,019.7,000.0,028.7,021.6,14.9,0002.4,0029.72,0018.95,0017.83
2024-01-21 01:31:00,SystemResetWarning,0824.0,5.00,000.00,020.3,019.7,000.0,028.7,021.6,14.9,0002.3,0029.07,0019.00,0017.84
2024-01-21 01:32:00,SystemResetWarning,0824.0,4.99,000.00,020.3,019.7,000.0,028.7,021.7,14.9,0002.3,0029.95,0018.97,0017.84
2024-01-21 01:33:00,SystemResetWarning,0824.0,4.99,000.00,020.3,019.7,000.0,028.7,021.6,14.9,0002.4,0030.55,0018.85,0017.76
2024-01-21 01:34:00,SystemResetWarning,0824.0,4.99,000.00,020.3,019.7,000.0,028.7,021.6,14.9,0002.3,0030.17,0018.76,0017.70
2024-01-21 01:35:00,SystemResetWarning,0824.0,5.00,000.00,020.3,019.7,000.0,028.7,021.6,14.9,0002.5,0029.97,0018.63,0017.61
2024-01-21 01:36:00,SystemResetWarning,0824.0,5.00,000.00,020.3,019.7,000.0,028.7,021.6,14.9,0001.8,0029.78,0018.57,0017.50
2024-01-21 01:37:00,SystemResetWarning,0824.0,5.00,000.00,020.3,019.7,000.0,028.7,021.6,14.9,0001.6,0029.00,0018.43,0017.40
2024-01-21 01:38:00,SystemResetWarning,0824.0,5.00,000.00,020.3,019.7,000.0,028.7,021.6,14.9,0001.9,0028.80,0018.34,0017.32
2024-01-21 01:39:00,SystemResetWarning,0824.0,5.00,000.00,020.3,019.6,000.0,028.7,021.6,14.9,0002.1,0027.60,0018.30,0017.28
2024-01-21 01:40:00,SystemResetWarning,0824.0,5.00,000.00,020.3,019.7,000.0,028.7,021.6,14.9,0002.3,0027.80,0018.28,0017.23
2024-01-21 01:41:00,SystemResetWarning,0824.0,5.00,000.00,020.3,019.7,000.0,028.7,021.7,14.9,0002.5,0027.87,0018.30,0017.23
2024-01-21 01:42:00,SystemResetWarning,0824.0,5.00,000.00,020.3,019.7,000.0,028.7,021.7,14.8,0002.5,0027.92,0018.19,0017.19
2024-01-21 01:43:00,SystemResetWarning,0824.0,5.00,000.00,020.3,019.7,000.0,028.7,021.6,14.8,0002.6,0027.12,0018.18,0017.17
2024-01-21 01:44:00,SystemResetWarning,0824.0,5.00,000.00,020.3,019.7,000.0,028.7,021.6,14.9,0002.1,0025.87,0018.23,0017.21
2024-01-21 01:45:00,SystemResetWarning,0824.0,5.00,000.00,020.3,019.7,000.0,028.7,021.6,14.9,0002.1,0026.37,0018.30,0017.25
2024-01-21 01:46:00,SystemResetWarning,0824.0,4.99,000.00,020.3,019.6,000.0,028.7,021.6,14.9,0002.1,0026.55,0018.38,0017.31
2024-01-21 01:47:00,SystemResetWarning,0824.0,4.99,000.00,020.3,019.6,000.0,028.7,021.6,14.9,0002.3,0026.37,0018.38,0017.35
2024-01-21 01:48:00,SystemResetWarning,0824.0,5.00,000.00,020.3,019.6,000.0,028.7,021.6,14.9,0002.3,0026.37,0018.42,0017.40
2024-01-21 01:49:00,SystemResetWarning,0824.0,5.00,000.00,020.3,019.6,000.0,028.7,021.6,15.0,0002.0,0026.49,0018.46,0017.41
2024-01-21 01:50:00,SystemResetWarning,0824.0,5.00,000.00,020.3,019.6,000.0,028.7,021.6,15.0,0001.8,0026.90,0018.49,0017.42
2024-01-21 01:51:00,SystemResetWarning,0824.0,5.00,000.00,020.3,019.6,000.0,028.7,021.6,15.0,0001.9,0026.76,0018.50,0017.44
2024-01-21 01:52:00,SystemResetWarning,0824.0,5.01,000.00,020.3,019.6,000.0,028.7,021.6,14.9,0001.7,0027.36,0018.52,0017.44
2024-01-21 01:53:00,SystemResetWarning,0823.9,5.01,000.00,020.3,019.6,000.0,028.7,021.6,14.9,0001.2,0027.94,0018.52,0017.44
2024-01-21 01:54:00,SystemResetWarning,0823.9,5.01,000.00,020.3,019.6,000.0,028.7,021.6,14.8,0000.6,0028.37,0018.47,0017.41
2024-01-21 01:55:00,SystemResetWarning,0823.9,4.99,000.00,020.3,019.6,000.0,028.7,021.5,14.8,0000.7,0028.77,0018.41,0017.39
2024-01-21 01:56:00,SystemResetWarning,0824.0,4.99,000.00,020.2,019.6,000.0,028.7,021.5,14.9,0000.8,0029.33,0018.47,0017.39
2024-01-21 01:57:00,SystemResetWarning,0824.0,5.00,000.00,020.2,019.5,000.0,028.7,021.4,14.9,0001.0,0029.06,0018.51,0017.39
2024-01-21 01:58:00,SystemResetWarning,0824.0,5.00,000.00,020.2,019.5,000.0,028.7,021.4,14.9,0001.2,0029.03,0018.51,0017.40
2024-01-21 01:59:00,SystemResetWarning,0824.0,5.01,000.00,020.2,019.5,000.0,028.6,021.4,14.9,0001.6,0028.89,0018.52,0017.42
